Weather in Medvedovskaya

Russia / Krasnodar Krai     45°26′57″N   39°00′36″E
temp.,
°C
wind,
m/s
gust,
m/s
humid.,
%
clouds,
%
prec.,
mm/h
press.,
hPa
HPBL,
m
21 june, mon
mon2100:00+22wnw11870 0.0 101016
03:00+21ne12920 0.0 101012
06:00+21e24920 0.0 1010133
09:00+25ene45620 0.0 1010425
12:00+28e565336 0.0 1010997
15:00+30e56510 0.0 10091255
18:00+30ese366082 0.0 1009535
21:00+25ese35754 0.0 100975
22 june, tue
tue2200:00+23ene48815 0.0 1009149
03:00+20e38520 0.0 1010147
06:00+18e48640 0.0 1010167
09:00+24e34510 0.0 1010445
12:00+28e33440 0.0 1010982
15:00+30e22415 0.0 10101250
18:00+29nnw1153100 0.0 1009425
21:00+25se125890 0.0 101015
23 june, wed
wed2300:00+21wnw357395 0.0 101281
03:00+20w227951 0.0 101221
06:00+21wnw22865 0.0 101391
09:00+26wnw34665 0.0 1013604
12:00+30nnw44542 0.0 10121274
15:00+32nnw45450 0.0 10111935
18:00+29nw56595 0.0 1011569
21:00+22nw48800 0.0 1011173
24 june, thu
thu2400:00+20wsw338947 0.0 101255
03:00+20sw2394100 0.0 101368
06:00+21wsw2484100 0.0 1013141
09:00+23nnw1180100 0.1 1013199
12:00+28ene1162100 0.0 10141106
15:00+30nne4451100 0.0 10131593
18:00+29ne245791 0.0 10131422
21:00+22nnw36844 0.0 1013109
25 june, fri
fri2500:00+21n22770 0.0 101224
03:00+20w33760 0.0 101241
06:00+20wsw358713 0.0 1012140
09:00+26w4567100 0.0 1013609
12:00+28w5658100 0.0 1012828
15:00+30wnw4449100 0.0 10121531
18:00+27nw556682 0.0 1013556
21:00+23nw3678100 0.0 1012113